Time,TemperatureF,DewpointF,PressureIn,WindDirection,WindDirectionDegrees,WindSpeedMPH,WindSpeedGustMPH,Humidity,HourlyPrecipIn,Conditions,Clouds,dailyrainin,SolarRadiationWatts/m^2,SoftwareType,DateUTC
2013-05-10 00:00:00,38.0,36.0,-100.00,NNE,22,11.0,-999.0,94,-99.99,,,-99.99,0.000000,,2013-05-10 05:00:00,
2013-05-10 00:42:00,38.0,36.0,-100.00,NNE,22,11.0,-999.0,94,-99.99,,,-99.99,0.000000,,2013-05-10 05:42:00,
2013-05-10 00:52:00,38.0,36.0,-100.00,NNE,22,11.0,-999.0,94,-99.99,,,-99.99,0.000000,,2013-05-10 05:52:00,
2013-05-10 01:00:00,38.0,37.0,-100.00,NNE,22,9.0,-999.0,95,-99.99,,,-99.99,0.000000,,2013-05-10 06:00:00,
2013-05-10 01:42:00,38.0,37.0,-100.00,NNE,22,9.0,-999.0,95,-99.99,,,-99.99,0.000000,,2013-05-10 06:42:00,
2013-05-10 01:52:00,38.0,37.0,-100.00,NNE,22,9.0,-999.0,95,-99.99,,,-99.99,0.000000,,2013-05-10 06:52:00,
2013-05-10 03:00:00,38.0,37.0,-100.00,NNE,22,7.0,-999.0,95,-99.99,,,-99.99,0.000000,,2013-05-10 08:00:00,
2013-05-10 03:42:00,38.0,37.0,-100.00,NNE,22,7.0,-999.0,95,-99.99,,,-99.99,0.000000,,2013-05-10 08:42:00,
2013-05-10 03:52:00,38.0,37.0,-100.00,NNE,22,7.0,-999.0,95,-99.99,,,-99.99,0.000000,,2013-05-10 08:52:00,
2013-05-10 04:00:00,37.0,36.0,-100.00,NNE,22,8.0,-999.0,95,-99.99,,,-99.99,0.000000,,2013-05-10 09:00:00,
2013-05-10 04:43:00,37.0,36.0,-100.00,NNE,22,8.0,-999.0,95,-99.99,,,-99.99,0.000000,,2013-05-10 09:43:00,
2013-05-10 04:52:00,37.0,36.0,-100.00,NNE,22,8.0,-999.0,95,-99.99,,,-99.99,0.000000,,2013-05-10 09:52:00,
2013-05-10 05:00:00,37.0,36.0,-100.00,NNE,22,8.0,-999.0,96,-99.99,,,-99.99,0.000000,,2013-05-10 10:00:00,
2013-05-10 05:42:00,37.0,36.0,-100.00,NNE,22,8.0,-999.0,96,-99.99,,,-99.99,0.000000,,2013-05-10 10:42:00,
2013-05-10 05:53:00,37.0,36.0,-100.00,NNE,22,8.0,-999.0,96,-99.99,,,-99.99,0.000000,,2013-05-10 10:53:00,
2013-05-10 06:00:00,36.0,35.0,-100.00,NNE,22,8.0,-999.0,95,-99.99,,,-99.99,2.320000,,2013-05-10 11:00:00,
2013-05-10 06:42:00,36.0,35.0,-100.00,NNE,22,8.0,-999.0,95,-99.99,,,-99.99,2.320000,,2013-05-10 11:42:00,
2013-05-10 06:52:00,36.0,35.0,-100.00,NNE,22,8.0,-999.0,95,-99.99,,,-99.99,2.320000,,2013-05-10 11:52:00,
2013-05-10 07:00:00,36.0,35.0,-100.00,NNE,22,8.0,-999.0,95,-99.99,,,-99.99,19.719999,,2013-05-10 12:00:00,
2013-05-10 07:42:00,36.0,35.0,-100.00,NNE,22,8.0,-999.0,95,-99.99,,,-99.99,19.719999,,2013-05-10 12:42:00,
2013-05-10 07:52:00,36.0,35.0,-100.00,NNE,22,8.0,-999.0,95,-99.99,,,-99.99,19.719999,,2013-05-10 12:52:00,
2013-05-10 08:00:00,36.0,35.0,-100.00,NNE,22,8.0,-999.0,95,-99.99,,,-99.99,42.919998,,2013-05-10 13:00:00,
2013-05-10 08:42:00,36.0,35.0,-100.00,NNE,22,8.0,-999.0,95,-99.99,,,-99.99,42.919998,,2013-05-10 13:42:00,
2013-05-10 08:52:00,36.0,35.0,-100.00,NNE,22,8.0,-999.0,95,-99.99,,,-99.99,42.919998,,2013-05-10 13:52:00,
2013-05-10 09:00:00,36.0,35.0,-100.00,NNE,22,8.0,-999.0,95,-99.99,,,-99.99,63.799999,,2013-05-10 14:00:00,
2013-05-10 09:42:00,36.0,35.0,-100.00,NNE,22,8.0,-999.0,95,-99.99,,,-99.99,63.799999,,2013-05-10 14:42:00,
2013-05-10 09:52:00,36.0,35.0,-100.00,NNE,22,8.0,-999.0,95,-99.99,,,-99.99,63.799999,,2013-05-10 14:52:00,
2013-05-10 11:00:00,38.0,35.0,-100.00,NNE,22,8.0,-999.0,91,-99.99,,,-99.99,214.600006,,2013-05-10 16:00:00,
2013-05-10 11:43:00,38.0,35.0,-100.00,NNE,22,8.0,-999.0,91,-99.99,,,-99.99,214.600006,,2013-05-10 16:43:00,
2013-05-10 11:53:00,38.0,35.0,-100.00,NNE,22,8.0,-999.0,91,-99.99,,,-99.99,214.600006,,2013-05-10 16:53:00,
2013-05-10 12:00:00,-999.0,-99.9,-100.00,NNE,22,8.0,-999.0,87,-99.99,,,-99.99,,,2013-05-10 17:00:00,
2013-05-10 12:42:00,39.0,36.0,-100.00,NNE,22,8.0,-999.0,87,-99.99,,,-99.99,291.160004,,2013-05-10 17:42:00,
2013-05-10 12:52:00,39.0,36.0,-100.00,NNE,22,8.0,-999.0,87,-99.99,,,-99.99,291.160004,,2013-05-10 17:52:00,
2013-05-10 13:00:00,40.0,36.0,-100.00,NNE,22,7.0,-999.0,86,0.05,,,-99.99,284.200012,,2013-05-10 18:00:00,
2013-05-10 13:43:00,40.0,36.0,-100.00,NNE,22,7.0,-999.0,86,0.05,,,-99.99,284.200012,,2013-05-10 18:43:00,
2013-05-10 13:54:00,40.0,36.0,-100.00,NNE,22,7.0,-999.0,86,0.05,,,-99.99,284.200012,,2013-05-10 18:54:00,
2013-05-10 14:00:00,43.0,38.0,-100.00,NNE,22,5.0,-999.0,81,-99.99,,,-99.99,430.359985,,2013-05-10 19:00:00,
2013-05-10 14:42:00,43.0,38.0,-100.00,NNE,22,5.0,-999.0,81,-99.99,,,-99.99,430.359985,,2013-05-10 19:42:00,
2013-05-10 14:52:00,43.0,38.0,-100.00,NNE,22,5.0,-999.0,81,-99.99,,,-99.99,430.359985,,2013-05-10 19:52:00,
2013-05-10 15:00:00,47.0,39.0,-100.00,NNE,22,5.0,-999.0,73,-99.99,,,-99.99,472.119995,,2013-05-10 20:00:00,
2013-05-10 15:42:00,47.0,39.0,-100.00,NNE,22,5.0,-999.0,73,-99.99,,,-99.99,472.119995,,2013-05-10 20:42:00,
2013-05-10 15:52:00,47.0,39.0,-100.00,NNE,22,5.0,-999.0,73,-99.99,,,-99.99,472.119995,,2013-05-10 20:52:00,
2013-05-10 17:00:00,48.0,39.0,-100.00,NE,45,4.0,-999.0,72,-99.99,,,-99.99,245.919998,,2013-05-10 22:00:00,
2013-05-10 17:42:00,48.0,39.0,-100.00,NE,45,4.0,-999.0,72,-99.99,,,-99.99,245.919998,,2013-05-10 22:42:00,
2013-05-10 17:52:00,48.0,39.0,-100.00,NE,45,4.0,-999.0,72,-99.99,,,-99.99,245.919998,,2013-05-10 22:52:00,
2013-05-10 18:00:00,44.0,38.0,-100.00,ESE,112,3.0,-999.0,78,-99.99,,,-99.99,189.080002,,2013-05-10 23:00:00,
2013-05-10 18:42:00,44.0,38.0,-100.00,ESE,112,3.0,-999.0,78,-99.99,,,-99.99,189.080002,,2013-05-10 23:42:00,
2013-05-10 18:52:00,44.0,38.0,-100.00,ESE,112,3.0,-999.0,78,-99.99,,,-99.99,189.080002,,2013-05-10 23:52:00,
2013-05-10 20:00:00,40.0,35.0,-100.00,East,90,2.0,-999.0,79,-99.99,,,-99.99,55.680000,,2013-05-11 01:00:00,
2013-05-10 20:42:00,40.0,35.0,-100.00,East,90,2.0,-999.0,79,-99.99,,,-99.99,55.680000,,2013-05-11 01:42:00,
2013-05-10 20:52:00,40.0,35.0,-100.00,East,90,2.0,-999.0,79,-99.99,,,-99.99,55.680000,,2013-05-11 01:52:00,
2013-05-10 21:00:00,38.0,34.0,-100.00,SSE,157,1.0,-999.0,86,-99.99,,,-99.99,1.160000,,2013-05-11 02:00:00,
2013-05-10 21:42:00,38.0,34.0,-100.00,SSE,157,1.0,-999.0,86,-99.99,,,-99.99,1.160000,,2013-05-11 02:42:00,
2013-05-10 21:52:00,38.0,34.0,-100.00,SSE,157,1.0,-999.0,86,-99.99,,,-99.99,1.160000,,2013-05-11 02:52:00,
2013-05-10 22:00:00,36.0,33.0,-100.00,South,180,1.0,-999.0,90,-99.99,,,-99.99,0.000000,,2013-05-11 03:00:00,
2013-05-10 22:43:00,36.0,33.0,-100.00,South,180,1.0,-999.0,90,-99.99,,,-99.99,0.000000,,2013-05-11 03:43:00,
2013-05-10 22:53:00,36.0,33.0,-100.00,South,180,1.0,-999.0,90,-99.99,,,-99.99,0.000000,,2013-05-11 03:53:00,
2013-05-10 23:00:00,33.0,31.0,-100.00,WSW,247,0.0,-999.0,92,-99.99,,,-99.99,0.000000,,2013-05-11 04:00:00,
2013-05-10 23:43:00,33.0,31.0,-100.00,WSW,247,0.0,-999.0,92,-99.99,,,-99.99,0.000000,,2013-05-11 04:43:00,
2013-05-10 23:52:00,33.0,31.0,-100.00,WSW,247,0.0,-999.0,92,-99.99,,,-99.99,0.000000,,2013-05-11 04:52:00,